• Em Portugal
  • Lista de países
  • Para 7 dias
  • Temperatura da água
  • Mapas de satélite
  • Mapa do tempo
  • Widgets de tempo
  • user-avatar
    Iniciar Sessão

    Previsão horária em Cobán

    Hoje, 20 Fevereiro, Terça-feira

    Tempo Temperatura Precipitação Vento Pressão Humidade
    00:00 +14°C° 0 mm 0 m/s 654 mmHg 95%
    01:00 +13°C° 0 mm 0 m/s 654 mmHg 95%
    02:00 +13°C° 0 mm 0 m/s 654 mmHg 95%
    03:00 +13°C° 0 mm 0 m/s 654 mmHg 95%
    04:00 +14°C° 0 mm 1 m/s 654 mmHg 95%
    05:00 +14°C° 0 mm 1 m/s 654 mmHg 94%
    06:00 +13°C° 0 mm 1 m/s 654 mmHg 94%
    07:00 +15°C° 0 mm 0 m/s 655 mmHg 83%
    08:00 +18°C° 0 mm 0 m/s 656 mmHg 73%
    09:00 +20°C° 0 mm 0 m/s 657 mmHg 62%
    10:00 +22°C° 0 mm 0 m/s 657 mmHg 56%
    11:00 +26°C° 0 mm 1 m/s 657 mmHg 51%
    12:00 +27°C° 0 mm 1 m/s 657 mmHg 45%
    13:00 +27°C° 0,4 mm 2 m/s 657 mmHg 49%
    14:00 +26°C° 0,4 mm 2 m/s 656 mmHg 53%
    15:00 +26°C° 0,4 mm 2 m/s 655 mmHg 57%
    16:00 +24°C° 0,3 mm 1 m/s 655 mmHg 63%
    17:00 +22°C° 0,3 mm 1 m/s 655 mmHg 68%
    18:00 +21°C° 0,3 mm 1 m/s 655 mmHg 74%
    19:00 +19°C° 0,1 mm 1 m/s 655 mmHg 78%
    20:00 +18°C° 0,1 mm 1 m/s 655 mmHg 83%
    21:00 +16°C° 0,1 mm 1 m/s 655 mmHg 88%
    22:00 +16°C° 0 mm 1 m/s 655 mmHg 91%
    23:00 +15°C° 0 mm 1 m/s 655 mmHg 93%

    Amanhã, 21 Fevereiro, Quarta-feira

    Tempo Temperatura Precipitação Vento Pressão Humidade
    00:00 +14°C° 0 mm 0 m/s 655 mmHg 95%
    01:00 +14°C° 0 mm 0 m/s 655 mmHg 95%
    02:00 +14°C° 0 mm 0 m/s 655 mmHg 96%
    03:00 +13°C° 0 mm 0 m/s 655 mmHg 96%
    04:00 +13°C° 0 mm 0 m/s 655 mmHg 96%
    05:00 +13°C° 0 mm 0 m/s 655 mmHg 96%
    06:00 +13°C° 0 mm 0 m/s 655 mmHg 96%
    07:00 +15°C° 0 mm 0 m/s 656 mmHg 87%
    08:00 +18°C° 0 mm 0 m/s 657 mmHg 77%
    09:00 +20°C° 0 mm 0 m/s 658 mmHg 68%
    10:00 +23°C° 0 mm 1 m/s 658 mmHg 61%
    11:00 +25°C° 0 mm 1 m/s 658 mmHg 54%
    12:00 +26°C° 0 mm 2 m/s 658 mmHg 48%
    13:00 +26°C° 0,1 mm 2 m/s 657 mmHg 46%
    14:00 +27°C° 0,1 mm 2 m/s 657 mmHg 44%
    15:00 +27°C° 0,1 mm 2 m/s 656 mmHg 43%
    16:00 +25°C° 0,1 mm 2 m/s 656 mmHg 51%
    17:00 +23°C° 0,1 mm 2 m/s 656 mmHg 60%
    18:00 +21°C° 0,1 mm 1 m/s 656 mmHg 69%
    19:00 +20°C° 0 mm 1 m/s 656 mmHg 76%
    20:00 +19°C° 0 mm 1 m/s 656 mmHg 83%
    21:00 +16°C° 0 mm 1 m/s 657 mmHg 90%
    22:00 +15°C° 0,1 mm 0 m/s 657 mmHg 92%
    23:00 +15°C° 0,1 mm 0 m/s 657 mmHg 94%

    Depois de amanhã, 22 Fevereiro, Quinta-feira

    Tempo Temperatura Precipitação Vento Pressão Humidade
    00:00 +14°C° 0,1 mm 0 m/s 656 mmHg 96%
    01:00 +14°C° 0,1 mm 0 m/s 656 mmHg 96%
    02:00 +14°C° 0,1 mm 0 m/s 656 mmHg 96%
    03:00 +14°C° 0,1 mm 0 m/s 655 mmHg 96%
    04:00 +14°C° 0,1 mm 0 m/s 655 mmHg 96%
    05:00 +14°C° 0,1 mm 0 m/s 656 mmHg 96%
    06:00 +14°C° 0,1 mm 0 m/s 656 mmHg 96%
    07:00 +15°C° 0 mm 0 m/s 656 mmHg 91%
    08:00 +17°C° 0 mm 0 m/s 657 mmHg 86%
    09:00 +18°C° 0 mm 0 m/s 658 mmHg 81%
    10:00 +22°C° 0 mm 1 m/s 658 mmHg 72%
    11:00 +24°C° 0 mm 1 m/s 658 mmHg 62%
    12:00 +26°C° 0 mm 1 m/s 658 mmHg 53%
    13:00 +26°C° 0,1 mm 1 m/s 657 mmHg 52%
    14:00 +26°C° 0,1 mm 2 m/s 657 mmHg 50%
    15:00 +26°C° 0,1 mm 2 m/s 656 mmHg 49%
    16:00 +24°C° 0,1 mm 2 m/s 656 mmHg 56%
    17:00 +22°C° 0,1 mm 1 m/s 655 mmHg 64%
    18:00 +21°C° 0,1 mm 1 m/s 655 mmHg 72%
    19:00 +19°C° 0 mm 1 m/s 656 mmHg 77%
    20:00 +18°C° 0 mm 1 m/s 656 mmHg 83%
    21:00 +15°C° 0 mm 0 m/s 656 mmHg 89%
    22:00 +14°C° 0 mm 0 m/s 656 mmHg 91%
    23:00 +14°C° 0 mm 0 m/s 656 mmHg 93%

    23 Fevereiro, Sexta-feira

    Tempo Temperatura Precipitação Vento Pressão Humidade
    00:00 +13°C° 0 mm 0 m/s 656 mmHg 95%
    01:00 +13°C° 0 mm 0 m/s 655 mmHg 95%
    02:00 +13°C° 0 mm 0 m/s 655 mmHg 96%
    03:00 +13°C° 0 mm 0 m/s 655 mmHg 96%
    04:00 +13°C° 0 mm 0 m/s 655 mmHg 95%
    05:00 +13°C° 0 mm 0 m/s 655 mmHg 95%
    06:00 +13°C° 0 mm 0 m/s 655 mmHg 94%
    07:00 +14°C° 0 mm 0 m/s 656 mmHg 87%
    08:00 +16°C° 0 mm 0 m/s 657 mmHg 80%
    09:00 +18°C° 0 mm 0 m/s 658 mmHg 74%
    10:00 +22°C° 0 mm 1 m/s 658 mmHg 68%
    11:00 +23°C° 0 mm 1 m/s 657 mmHg 62%
    12:00 +25°C° 0 mm 1 m/s 657 mmHg 56%
    13:00 +25°C° 0,1 mm 1 m/s 657 mmHg 54%
    14:00 +26°C° 0,1 mm 2 m/s 656 mmHg 52%
    15:00 +26°C° 0,1 mm 2 m/s 655 mmHg 50%
    16:00 +24°C° 0,1 mm 2 m/s 655 mmHg 57%
    17:00 +22°C° 0,1 mm 1 m/s 655 mmHg 64%
    18:00 +21°C° 0,1 mm 1 m/s 655 mmHg 71%
    19:00 +19°C° 0 mm 1 m/s 655 mmHg 77%
    20:00 +18°C° 0 mm 1 m/s 655 mmHg 83%
    21:00 +15°C° 0 mm 0 m/s 655 mmHg 90%
    22:00 +14°C° 0 mm 0 m/s 655 mmHg 91%
    23:00 +14°C° 0 mm 0 m/s 655 mmHg 93%

    24 Fevereiro, Sábado

    Tempo Temperatura Precipitação Vento Pressão Humidade
    00:00 +13°C° 0 mm 0 m/s 655 mmHg 95%
    01:00 +13°C° 0 mm 0 m/s 654 mmHg 95%
    02:00 +13°C° 0 mm 0 m/s 654 mmHg 95%
    03:00 +13°C° 0 mm 0 m/s 653 mmHg 95%
    04:00 +13°C° 0 mm 1 m/s 654 mmHg 94%
    05:00 +13°C° 0 mm 1 m/s 654 mmHg 94%
    06:00 +13°C° 0 mm 1 m/s 654 mmHg 93%
    07:00 +15°C° 0 mm 0 m/s 655 mmHg 83%
    08:00 +18°C° 0 mm 0 m/s 656 mmHg 73%
    09:00 +20°C° 0 mm 0 m/s 657 mmHg 63%
    10:00 +22°C° 0,1 mm 0 m/s 657 mmHg 58%
    11:00 +25°C° 0,1 mm 1 m/s 657 mmHg 54%
    12:00 +27°C° 0,1 mm 1 m/s 656 mmHg 49%
    13:00 +27°C° 0,4 mm 1 m/s 656 mmHg 51%
    14:00 +26°C° 0,4 mm 2 m/s 655 mmHg 53%
    15:00 +26°C° 0,4 mm 2 m/s 654 mmHg 55%
    16:00 +24°C° 0,6 mm 1 m/s 654 mmHg 62%
    17:00 +23°C° 0,6 mm 1 m/s 654 mmHg 70%
    18:00 +21°C° 0,6 mm 1 m/s 654 mmHg 77%
    19:00 +20°C° 0,4 mm 1 m/s 654 mmHg 81%
    20:00 +18°C° 0,4 mm 1 m/s 654 mmHg 85%
    21:00 +16°C° 0,4 mm 1 m/s 654 mmHg 89%
    22:00 +16°C° 0 mm 1 m/s 654 mmHg 91%
    23:00 +15°C° 0 mm 1 m/s 654 mmHg 93%

    25 Fevereiro, Domingo

    Tempo Temperatura Precipitação Vento Pressão Humidade
    00:00 +15°C° 0 mm 1 m/s 654 mmHg 94%
    01:00 +15°C° 0 mm 1 m/s 654 mmHg 95%
    02:00 +14°C° 0 mm 1 m/s 653 mmHg 95%
    03:00 +14°C° 0 mm 1 m/s 653 mmHg 95%
    04:00 +14°C° 0 mm 1 m/s 653 mmHg 95%
    05:00 +14°C° 0 mm 1 m/s 653 mmHg 95%
    06:00 +13°C° 0 mm 1 m/s 653 mmHg 95%
    07:00 +15°C° 0 mm 0 m/s 655 mmHg 84%
    08:00 +18°C° 0 mm 0 m/s 656 mmHg 73%
    09:00 +21°C° 0 mm 0 m/s 657 mmHg 62%
    10:00 +22°C° 0 mm 0 m/s 657 mmHg 56%
    11:00 +26°C° 0 mm 1 m/s 657 mmHg 50%
    12:00 +28°C° 0 mm 1 m/s 657 mmHg 44%
    13:00 +28°C° 0 mm 1 m/s 656 mmHg 43%
    14:00 +27°C° 0 mm 2 m/s 655 mmHg 42%
    15:00 +27°C° 0 mm 2 m/s 655 mmHg 41%
    16:00 +25°C° 0,1 mm 2 m/s 655 mmHg 51%
    17:00 +23°C° 0,1 mm 1 m/s 654 mmHg 61%
    18:00 +21°C° 0,1 mm 1 m/s 654 mmHg 72%
    19:00 +19°C° 0,3 mm 1 m/s 654 mmHg 77%
    20:00 +18°C° 0,3 mm 1 m/s 654 mmHg 83%
    21:00 +15°C° 0,3 mm 0 m/s 655 mmHg 89%
    22:00 +14°C° 0 mm 0 m/s 655 mmHg 90%
    23:00 +14°C° 0 mm 0 m/s 654 mmHg 92%
    Mostrar mais